Location: Austin, TX
(30.3000°N, 97.7500°W)
Time: 06:26:31
(UTC-05:00)

Daily predictions for brighter satellites

Satellite Brightness Start Highest point End
(mag) Time Altitude Azimuth Time Altitude Azimuth Time Altitude Azimuth
Spot 2 Rocket 3.9 20:44:14 10° SE 20:49:03 47° ENE 20:53:52 10° N
Cosmos 1943 Rocket 3.0 20:45:36 10° NNW 20:50:59 52° WSW 20:56:19 10° S
SL-27 R/B 2.5 20:48:39 10° S 20:52:17 75° ESE 20:55:56 10° NNE
Meteor 2-4 Rocket 4.2 20:47:51 10° SSE 20:53:05 41° E 20:58:27 10° NNE
ALOS 3.2 20:50:30 10° S 20:55:02 51° W 20:59:35 10° NNW
Cosmos 1544 Rocket 3.7 20:52:24 10° N 20:56:44 77° W 21:01:03 10° S
USA 186 2.4 20:57:16 10° SE 21:00:13 35° ENE 21:03:04 10° N
Cosmos 1939 Rocket 4.4 21:00:42 10° ESE 21:03:27 19° ENE 21:06:13 10° NNE
Hubble Space Telescope 1.5 21:00:18 10° SW 21:04:03 33° SSE 21:07:47 10° E
Cosmos 1680 Rocket 4.1 21:01:12 10° SSW 21:06:22 62° WNW 21:11:32 10° N
Cosmos 1500 4.4 21:04:19 10° NNW 21:07:54 44° W 21:11:28 10° SSW
GPS 2-04 Rocket1 3.9 21:06:03 10° S 21:08:24 17° SSE 21:10:19 12° ESE
Envisat 3.6 21:06:50 10° SE 21:11:31 39° ENE 21:16:12 10° N
Cosmos 405 Rocket 3.3 21:08:18 10° SSW 21:12:00 61° W 21:15:47 10° N
Resurs 1-3 3.6 21:10:14 10° SSE 21:14:36 88° WSW 21:19:00 10° NNW
Cosmos 1441 Rocket 3.0 21:13:08 10° S 21:16:49 70° E 21:20:33 10° NNE
USA 81 4.4 21:12:22 10° S 21:17:37 70° W 21:22:53 10° N
Cosmos 1455 Rocket 4.2 21:17:04 10° NNW 21:21:11 44° W 21:25:17 10° SSW
CZ-3A R/B 1.6 21:15:42 10° SW 21:23:54 81° NW 21:26:31 10° NE
Cosmos 2074 Rocket 4.0 21:18:24 10° N 21:24:40 71° E 21:30:55 10° SSE
NOSS 8 (H) 4.4 21:27:01 10° SSW 21:30:31 58° ESE 21:33:50 10° NE
Helios 1A 3.1 21:28:06 15° SSE 21:31:26 56° ENE 21:35:33 10° N
Cosmos 2184 Rocket 4.0 21:25:10 10° N 21:31:30 78° E 21:37:43 10° S
YAOGAN 6 3.8 21:31:01 20° ESE 21:32:12 24° ENE 21:35:03 10° NNE
Cosmos 1238 Rocket 4.1 21:27:33 10° S 21:34:17 82° E 21:40:47 10° N
ASTRO E2 3.8 21:30:56 10° W 21:34:31 32° SSW 21:36:31 20° SSE
OAO 2 Rocket 3.7 21:30:03 10° WNW 21:34:54 60° NNE 21:38:53 15° E
Resurs 01 Rocket 2.9 21:31:41 10° S 21:35:52 40° W 21:40:02 10° NNW
Meteor 1-23 Rocket 4.1 21:32:49 10° S 21:38:23 85° E 21:44:00 10° N
COSMOS 2487 2.7 21:37:58 16° S 21:40:29 45° ESE 21:43:55 10° NNE
Cosmos 2082 Rocket 2.5 21:35:31 10° S 21:40:50 43° ESE 21:46:10 10° NE
ERS-1 Rocket 3.9 21:41:26 22° ESE 21:43:43 31° ENE 21:48:06 10° N
Cosmos 405 2.9 21:41:00 10° N 21:44:31 68° E 21:46:13 28° SSE
CENTAUR R/B 3.7 21:37:38 10° NW 21:45:36 56° WSW 21:53:45 10° S
GPS 2-14 Rocket1 4.3 21:44:26 10° SW 21:47:05 18° S 21:47:18 18° S
Helios 1B rocket 3.0 21:43:25 10° N 21:47:29 59° WNW 21:51:32 10° SSW
Nadezhda 1 Rocket 4.3 21:41:17 10° S 21:47:37 75° W 21:54:01 10° N
Cosmos 1743 4.3 21:44:35 10° NNW 21:48:09 35° W 21:51:44 10° SSW
Cosmos 921 Rocket 4.2 21:44:35 10° NNE 21:48:17 26° ENE 21:49:20 23° E
Spot 1 4.0 21:46:44 19° SSE 21:49:56 87° ENE 21:54:13 10° NNW
PSLV R/B 3.5 21:51:22 10° NW 21:54:25 51° NNE 21:55:08 40° ENE
ASTEX 1 3.3 21:53:11 22° SSE 21:56:19 72° E 22:01:12 10° N
Cosmos 1371 Rocket 3.9 21:51:42 10° NNW 21:56:59 74° ENE 21:59:46 28° SSE
Fermi 4.4 21:55:26 10° SW 21:59:06 33° S 21:59:08 33° S
Okean 2 3.6 21:57:13 11° SSW 22:01:07 68° W 22:05:10 10° N
Intercosmos 24 3.6 21:58:30 10° N 22:02:01 71° E 22:03:06 43° SSE
Cosmos 1697 Rocket 4.3 21:58:41 10° NNE 22:02:34 19° ENE 22:04:02 17° E
Cosmos 1666 4.2 21:59:19 10° NNW 22:02:44 34° W 22:05:52 12° SSW
Cosmos 1892 Rocket 3.4 22:05:42 28° S 22:08:00 80° E 22:12:25 10° N
Cosmos 2369 4.1 22:05:28 10° N 22:10:59 47° ENE 22:12:46 36° ESE
Cosmos 1833 Rocket 2.5 22:05:52 10° SSW 22:11:27 79° ESE 22:17:05 10° NNE
Meteor 1-15 Rocket 4.1 22:07:21 10° N 22:12:56 87° W 22:15:57 28° S
Cosmos 2154 Rocket 4.0 22:09:45 10° N 22:16:08 86° W 22:20:03 25° S
MOS 1-B Rocket 4.1 22:16:21 37° SE 22:18:29 58° ENE 22:24:44 10° N
Cosmos 1606 Rocket 3.5 22:19:42 10° N 22:24:02 80° W 22:25:02 52° S
Cosmos 1726 Rocket 3.5 22:28:12 10° N 22:32:31 77° W 22:33:05 64° SSW
Cosmos 1437 Rocket 3.8 22:32:24 10° NNW 22:36:05 40° W 22:36:51 36° SW
Cosmos 1066 Rocket 4.0 22:34:51 47° S 22:36:32 83° E 22:42:09 10° N
Terra 3.7 22:38:44 17° ENE 22:38:44 17° ENE 22:41:03 10° NNE
ARGOS 3.0 22:43:31 64° SE 22:44:14 74° ENE 22:49:39 10° N
Hubble Space Telescope 2.0 22:40:58 10° WSW 22:43:26 34° WSW 22:43:26 34° WSW
H-2A R/B 2.5 22:47:25 44° ENE 22:47:25 44° ENE 22:51:54 10° N
SL-08 RB Rocket 3.9 22:48:16 57° NE 22:48:16 57° NE 22:52:08 10° N
OAO 3 Copernicus 4.1 22:42:50 10° WSW 22:47:49 83° S 22:47:49 83° S
SL-24 DEB 4.2 22:50:01 75° WSW 22:50:09 76° W 22:54:47 10° N
Timation 2 Rocket 4.0 22:47:18 19° SSW 22:52:10 77° WNW 22:58:23 10° NNE
Cosmos 1980 Rocket 3.3 22:47:34 10° N 22:52:22 29° ENE 22:52:22 29° ENE
Cosmos 2341 Rocket 4.5 22:47:30 10° NNW 22:53:43 57° W 22:56:24 34° SSW
Nimbus 7 Rocket 4.4 22:49:01 10° NNE 22:55:06 84° WNW 22:57:04 46° SSW
Cosmos 2058 Rocket 3.5 22:50:56 10° NNW 22:55:17 57° W 22:55:19 57° W
SPOT 5 2.8 22:55:53 67° NNW 22:55:53 67° NNW 22:59:41 10° NNW
SL-08 R/B 4.4 22:50:53 10° N 22:56:56 62° E 22:57:15 61° E
MetOp-B 4.4 22:56:34 54° SW 22:57:26 63° WSW 23:02:44 10° NNW
Mugunghwa Rocket 4.4 22:49:07 10° W 22:57:31 69° S 22:59:17 55° SE
Cosmos 2218 Rocket 3.8 22:54:06 10° N 23:00:17 78° E 23:00:55 71° SE
H-2A R/B 3.9 23:05:36 24° NE 23:05:36 24° NE 23:08:01 10° NNE
Cosmos 2322 Rocket 4.4 23:02:20 10° NNE 23:04:39 12° ENE 23:04:45 12° ENE
Cosmos 1269 Rocket 4.1 23:06:26 71° WSW 23:06:44 73° WNW 23:12:01 10° NNE
Lacrosse 5 3.8 23:12:01 18° NE 23:12:01 18° NE 23:13:23 10° NE
Cosmos 1048 Rocket 4.2 23:10:56 60° W 23:11:15 62° WNW 23:16:22 10° N
Cosmos 1420 Rocket 4.2 23:08:37 10° NNW 23:13:05 62° NNE 23:13:05 62° NNE
Meteor 1-21 4.2 23:16:02 79° NNE 23:16:02 79° NNE 23:21:25 10° N
Meteor 2-21 4.3 23:12:39 10° N 23:18:42 81° W 23:18:51 81° WSW
Nadezhda 3 Rocket 4.2 23:19:34 58° ENE 23:19:34 58° ENE 23:25:09 10° NNE
Meteor 2-21 Rocket 4.3 23:17:56 10° N 23:23:43 82° N 23:23:43 82° N
DMSP B5D2-2 4.4 23:20:48 10° N 23:25:33 65° NW 23:25:33 65° NW
Cosmos 1452 Rocket 4.4 23:25:42 10° NNW 23:30:11 43° W 23:30:11 43° W
Cosmos 1697 Rocket 3.6 23:41:22 10° NNW 23:45:47 42° WNW 23:45:47 42° WNW
